,,,PA_Meas_PMT16A,,PR_Meas_QMR101_102,,RH_Meas_QMH101,,SR_Meas_QMS101,,TA_Meas_QMH101,,GenWind,,GenWind,
date,time,status,PA,status,PR,status,RH,status,SR,status,TA,status,DirAvg,status,SpdAvg,
2010-04-14, 00:00:04,VALID,1009.93,VALID,0,VALID,98.2045,VALID,0,VALID,25.1343,VALID,6,VALID,0,
2010-04-14, 00:01:04,VALID,1009.93,VALID,0,VALID,98.0672,VALID,0,VALID,25.1343,VALID,6,VALID,0,
2010-04-14, 00:02:04,VALID,1009.91,VALID,0,VALID,98.0291,VALID,0.105969,VALID,25.1343,VALID,6,VALID,0,
2010-04-14, 00:03:04,VALID,1009.87,VALID,0,VALID,98.1206,VALID,0.105969,VALID,25.1557,VALID,6,VALID,0,
2010-04-14, 00:04:04,VALID,1009.87,VALID,0,VALID,98.1968,VALID,0.105969,VALID,25.1557,VALID,6,VALID,0,
2010-04-14, 00:05:04,VALID,1009.85,VALID,0,VALID,98.3646,VALID,0,VALID,25.1557,VALID,6,VALID,0,
2010-04-14, 00:06:04,VALID,1009.81,VALID,0,VALID,98.3951,VALID,0,VALID,25.1148,VALID,6,VALID,0,
2010-04-14, 00:07:04,VALID,1009.77,VALID,0,VALID,98.3036,VALID,0,VALID,25.1167,VALID,6,VALID,0,
2010-04-14, 00:08:04,VALID,1009.76,VALID,0,VALID,98.2578,VALID,0.105969,VALID,25.0954,VALID,6,VALID,0,
2010-04-14, 00:09:04,VALID,1009.76,VALID,0,VALID,98.2655,VALID,0.105969,VALID,25.0759,VALID,6,VALID,0,
2010-04-14, 00:10:04,VALID,1009.75,VALID,0,VALID,98.357,VALID,0,VALID,25.0759,VALID,6,VALID,0,
2010-04-14, 00:11:04,VALID,1009.76,VALID,0,VALID,98.4561,VALID,0,VALID,25.0759,VALID,6,VALID,0,
2010-04-14, 00:12:04,VALID,1009.77,VALID,0,VALID,98.5247,VALID,0,VALID,25.0778,VALID,6,VALID,0,
2010-04-14, 00:13:04,VALID,1009.79,VALID,0,VALID,98.6772,VALID,0,VALID,25.0759,VALID,6,VALID,0,
2010-04-14, 00:14:04,VALID,1009.82,VALID,0,VALID,98.784,VALID,0,VALID,25.0759,VALID,6,VALID,0,
2010-04-14, 00:15:04,VALID,1009.79,VALID,0,VALID,98.8145,VALID,0,VALID,25.0973,VALID,6,VALID,0,
2010-04-14, 00:16:04,VALID,1009.82,VALID,0,VALID,98.7078,VALID,0.105969,VALID,25.0564,VALID,6,VALID,0,
2010-04-14, 00:17:04,VALID,1009.82,VALID,0,VALID,98.5247,VALID,0,VALID,25.0564,VALID,6,VALID,0,
2010-04-14, 00:18:04,VALID,1009.78,VALID,0,VALID,98.3798,VALID,0.105969,VALID,25.0778,VALID,6,VALID,0,
2010-04-14, 00:19:04,VALID,1009.77,VALID,0,VALID,98.2502,VALID,0.105969,VALID,25.0778,VALID,6,VALID,0,
2010-04-14, 00:20:04,VALID,1009.74,VALID,0,VALID,98.3188,VALID,0,VALID,25.0778,VALID,6,VALID,0,
2010-04-14, 00:21:04,VALID,1009.73,VALID,0,VALID,98.3875,VALID,0.105969,VALID,25.0564,VALID,6,VALID,0,
2010-04-14, 00:22:04,VALID,1009.7,VALID,0,VALID,98.4637,VALID,0.105969,VALID,25.0759,VALID,6,VALID,0,
2010-04-14, 00:23:04,VALID,1009.68,VALID,0,VALID,98.4408,VALID,0.105969,VALID,25.0973,VALID,6,VALID,0,
2010-04-14, 00:24:04,VALID,1009.65,VALID,0,VALID,98.3417,VALID,0,VALID,25.0778,VALID,6,VALID,0,
2010-04-14, 00:25:04,VALID,1009.64,VALID,0,VALID,98.2502,VALID,0.105969,VALID,25.0564,VALID,6,VALID,0,
2010-04-14, 00:26:04,VALID,1009.65,VALID,0,VALID,98.2197,VALID,0,VALID,25.0778,VALID,6,VALID,0,
2010-04-14, 00:27:04,VALID,1009.66,VALID,0,VALID,98.235,VALID,0.105969,VALID,25.0564,VALID,6,VALID,0,
2010-04-14, 00:28:04,VALID,1009.63,VALID,0,VALID,98.2655,VALID,0,VALID,25.0564,VALID,6,VALID,0,
2010-04-14, 00:29:04,VALID,1009.66,VALID,0,VALID,98.2502,VALID,0,VALID,25.0564,VALID,6,VALID,0,
2010-04-14, 00:30:04,VALID,1009.66,VALID,0,VALID,98.2578,VALID,0,VALID,25.0564,VALID,6,VALID,0,
2010-04-14, 00:31:04,VALID,1009.63,VALID,0,VALID,98.296,VALID,0,VALID,25.0564,VALID,6,VALID,0,
2010-04-14, 00:32:04,VALID,1009.6,VALID,0,VALID,98.357,VALID,0,VALID,25.0369,VALID,6,VALID,0,
2010-04-14, 00:33:04,VALID,1009.58,VALID,0,VALID,98.357,VALID,0,VALID,25.0778,VALID,6,VALID,0,
2010-04-14, 00:34:04,VALID,1009.57,VALID,0,VALID,98.3493,VALID,0,VALID,25.0583,VALID,6,VALID,0,
2010-04-14, 00:35:04,VALID,1009.54,VALID,0,VALID,98.3112,VALID,0,VALID,25.0388,VALID,6,VALID,0,
2010-04-14, 00:36:04,VALID,1009.54,VALID,0,VALID,98.296,VALID,0.105969,VALID,25.0388,VALID,6,VALID,0,
2010-04-14, 00:37:04,VALID,1009.52,VALID,0,VALID,98.3798,VALID,0.105969,VALID,25.0388,VALID,6,VALID,0,
2010-04-14, 00:38:04,VALID,1009.5,VALID,0,VALID,98.4637,VALID,0.105969,VALID,25.0388,VALID,6,VALID,0,
2010-04-14, 00:39:04,VALID,1009.47,VALID,0,VALID,98.4942,VALID,0,VALID,25.0174,VALID,6,VALID,0,
2010-04-14, 00:40:04,VALID,1009.48,VALID,0,VALID,98.4866,VALID,0.105969,VALID,25.0174,VALID,6,VALID,0,
2010-04-14, 00:41:04,VALID,1009.46,VALID,0,VALID,98.4408,VALID,0,VALID,25.0174,VALID,6,VALID,0,
2010-04-14, 00:42:04,VALID,1009.42,VALID,0,VALID,98.4561,VALID,0.105969,VALID,25.0369,VALID,6,VALID,0,
2010-04-14, 00:43:04,VALID,1009.42,VALID,0,VALID,98.5095,VALID,0.105969,VALID,25.0174,VALID,6,VALID,0,
2010-04-14, 00:44:04,VALID,1009.41,VALID,0,VALID,98.5019,VALID,0,VALID,24.9979,VALID,6,VALID,0,
2010-04-14, 00:45:04,VALID,1009.41,VALID,0,VALID,98.4637,VALID,0.105969,VALID,24.9979,VALID,6,VALID,0,
2010-04-14, 00:46:04,VALID,1009.41,VALID,0,VALID,98.4485,VALID,0,VALID,24.9998,VALID,6,VALID,0,
2010-04-14, 00:47:04,VALID,1009.41,VALID,0,VALID,98.3951,VALID,0,VALID,24.9998,VALID,6,VALID,0,
2010-04-14, 00:48:04,VALID,1009.37,VALID,0,VALID,98.3417,VALID,0.105969,VALID,24.9803,VALID,6,VALID,0,
2010-04-14, 00:49:04,VALID,1009.4,VALID,0,VALID,98.2731,VALID,0,VALID,24.9589,VALID,6,VALID,0,
2010-04-14, 00:50:04,VALID,1009.36,VALID,0,VALID,98.3265,VALID,0,VALID,24.9608,VALID,6,VALID,0,
2010-04-14, 00:51:04,VALID,1009.34,VALID,0,VALID,98.418,VALID,0,VALID,24.9608,VALID,6,VALID,0,
2010-04-14, 00:52:04,VALID,1009.32,VALID,0,VALID,98.5095,VALID,0,VALID,24.9413,VALID,6,VALID,0,
2010-04-14, 00:53:04,VALID,1009.29,VALID,0,VALID,98.5476,VALID,0,VALID,24.9199,VALID,6,VALID,0,
2010-04-14, 00:54:04,VALID,1009.27,VALID,0,VALID,98.5857,VALID,0.105969,VALID,24.9004,VALID,6,VALID,0,
2010-04-14, 00:55:04,VALID,1009.22,VALID,0,VALID,98.6239,VALID,0,VALID,24.9218,VALID,6,VALID,0,
2010-04-14, 00:56:04,VALID,1009.2,VALID,0,VALID,98.6925,VALID,0,VALID,24.9004,VALID,6,VALID,0,
2010-04-14, 00:57:04,VALID,1009.16,VALID,0,VALID,98.7459,VALID,0.105969,VALID,24.9004,VALID,6,VALID,0,
2010-04-14, 00:58:04,VALID,1009.12,VALID,0,VALID,98.7611,VALID,0,VALID,24.9023,VALID,6,VALID,0,
2010-04-14, 00:59:04,VALID,1009.09,VALID,0,VALID,98.7916,VALID,0.105969,VALID,24.8615,VALID,6,VALID,0,
2010-04-14, 01:00:04,VALID,1009.07,VALID,0,VALID,98.8145,VALID,0.105969,VALID,24.842,VALID,6,VALID,0,
2010-04-14, 01:01:04,VALID,1009.02,VALID,0,VALID,98.8221,VALID,0,VALID,24.8225,VALID,6,VALID,0,
2010-04-14, 01:02:04,VALID,1009.04,VALID,0,VALID,98.8221,VALID,0,VALID,24.8225,VALID,6,VALID,0,
2010-04-14, 01:03:04,VALID,1008.99,VALID,0,VALID,98.8069,VALID,0.105969,VALID,24.803,VALID,6,VALID,0,
2010-04-14, 01:04:04,VALID,1008.99,VALID,0,VALID,98.8298,VALID,0.105969,VALID,24.7835,VALID,6,VALID,0,
2010-04-14, 01:05:04,VALID,1008.98,VALID,0,VALID,98.845,VALID,0.105969,VALID,24.764,VALID,6,VALID,0,
2010-04-14, 01:06:04,VALID,1008.96,VALID,0,VALID,98.8679,VALID,0.105969,VALID,24.7659,VALID,6,VALID,0,
2010-04-14, 01:07:04,VALID,1008.89,VALID,0,VALID,98.9213,VALID,0.105969,VALID,24.725,VALID,6,VALID,0,
2010-04-14, 01:08:04,VALID,1008.88,VALID,0,VALID,98.9747,VALID,0,VALID,24.7055,VALID,6,VALID,0,
2010-04-14, 01:09:04,VALID,1008.83,VALID,0,VALID,99.0509,VALID,0.105969,VALID,24.7269,VALID,6,VALID,0,
2010-04-14, 01:10:04,VALID,1008.83,VALID,0,VALID,99.1043,VALID,0,VALID,24.7074,VALID,6,VALID,0,
2010-04-14, 01:11:04,VALID,1008.76,VALID,0,VALID,99.1348,VALID,0,VALID,24.7074,VALID,6,VALID,0,
2010-04-14, 01:12:04,VALID,1008.77,VALID,0,VALID,99.15,VALID,0.105969,VALID,24.6666,VALID,6,VALID,0,
2010-04-14, 01:13:04,VALID,1008.75,VALID,0,VALID,99.1577,VALID,0,VALID,24.6471,VALID,6,VALID,0,
2010-04-14, 01:14:04,VALID,1008.78,VALID,0,VALID,99.1882,VALID,0.105969,VALID,24.6471,VALID,6,VALID,0,
2010-04-14, 01:15:04,VALID,1008.76,VALID,0,VALID,99.1882,VALID,0.105969,VALID,24.6489,VALID,6,VALID,0,
2010-04-14, 01:16:04,VALID,1008.76,VALID,0,VALID,99.2034,VALID,0,VALID,24.6489,VALID,6,VALID,0,
2010-04-14, 01:17:04,VALID,1008.75,VALID,0,VALID,99.2797,VALID,0.105969,VALID,24.6276,VALID,6,VALID,0,
2010-04-14, 01:18:04,VALID,1008.71,VALID,0,VALID,99.2949,VALID,0.105969,VALID,24.6081,VALID,6,VALID,0,
2010-04-14, 01:19:04,VALID,1008.69,VALID,0,VALID,99.3331,VALID,0.105969,VALID,24.6294,VALID,6,VALID,0,
2010-04-14, 01:20:04,VALID,1008.67,VALID,0,VALID,99.3559,VALID,0,VALID,24.6081,VALID,6,VALID,0,
2010-04-14, 01:21:04,VALID,1008.63,VALID,0,VALID,99.3864,VALID,0,VALID,24.6489,VALID,6,VALID,0,
2010-04-14, 01:22:04,VALID,1008.58,VALID,0,VALID,99.4246,VALID,0.105969,VALID,24.6081,VALID,6,VALID,0,
2010-04-14, 01:23:04,VALID,1008.58,VALID,0,VALID,99.4551,VALID,0,VALID,24.5886,VALID,6,VALID,0,
2010-04-14, 01:24:04,VALID,1008.53,VALID,0,VALID,99.4627,VALID,0.105969,VALID,24.5905,VALID,6,VALID,0,
2010-04-14, 01:25:04,VALID,1008.51,VALID,0,VALID,99.4856,VALID,0,VALID,24.571,VALID,6,VALID,0,
2010-04-14, 01:26:04,VALID,1008.49,VALID,0,VALID,99.4627,VALID,0,VALID,24.5905,VALID,6,VALID,0,
2010-04-14, 01:27:04,VALID,1008.5,VALID,0,VALID,99.4398,VALID,0,VALID,24.5691,VALID,6,VALID,0,
2010-04-14, 01:28:04,VALID,1008.48,VALID,0,VALID,99.4551,VALID,0.105969,VALID,24.5496,VALID,6,VALID,0,
2010-04-14, 01:29:04,VALID,1008.46,VALID,0,VALID,99.4474,VALID,0,VALID,24.571,VALID,6,VALID,0,
2010-04-14, 01:30:04,VALID,1008.48,VALID,0,VALID,99.4703,VALID,0,VALID,24.5496,VALID,6,VALID,0,
2010-04-14, 01:31:04,VALID,1008.47,VALID,0,VALID,99.4551,VALID,0,VALID,24.5515,VALID,6,VALID,0,
2010-04-14, 01:32:04,VALID,1008.51,VALID,0,VALID,99.4703,VALID,0,VALID,24.5515,VALID,6,VALID,0,
2010-04-14, 01:33:04,VALID,1008.47,VALID,0,VALID,99.478,VALID,0,VALID,24.5515,VALID,6,VALID,0,
2010-04-14, 01:34:04,VALID,1008.46,VALID,0,VALID,99.4932,VALID,0,VALID,24.5301,VALID,6,VALID,0,
2010-04-14, 01:35:04,VALID,1008.5,VALID,0,VALID,99.539,VALID,0.105969,VALID,24.5301,VALID,6,VALID,0,
2010-04-14, 01:36:04,VALID,1008.51,VALID,0,VALID,99.5542,VALID,0,VALID,24.532,VALID,6,VALID,0,
2010-04-14, 01:37:04,VALID,1008.52,VALID,0,VALID,99.5695,VALID,0,VALID,24.532,VALID,6,VALID,0,
2010-04-14, 01:38:04,VALID,1008.52,VALID,0,VALID,99.5847,VALID,0,VALID,24.532,VALID,6,VALID,0,
2010-04-14, 01:39:04,VALID,1008.55,VALID,0,VALID,99.5542,VALID,0,VALID,24.532,VALID,6,VALID,0,
2010-04-14, 01:40:04,VALID,1008.52,VALID,0,VALID,99.5771,VALID,0,VALID,24.5106,VALID,6,VALID,0,
2010-04-14, 01:41:04,VALID,1008.57,VALID,0,VALID,99.5771,VALID,0,VALID,24.532,VALID,6,VALID,0,
2010-04-14, 01:42:04,VALID,1008.53,VALID,0,VALID,99.5847,VALID,0,VALID,24.5515,VALID,6,VALID,0,
2010-04-14, 01:43:04,VALID,1008.55,VALID,0,VALID,99.5923,VALID,0.105969,VALID,24.532,VALID,6,VALID,0,
2010-04-14, 01:44:04,VALID,1008.55,VALID,0,VALID,99.5847,VALID,0,VALID,24.532,VALID,6,VALID,0,
2010-04-14, 01:45:04,VALID,1008.56,VALID,0,VALID,99.6076,VALID,0.105969,VALID,24.5301,VALID,6,VALID,0,
2010-04-14, 01:46:04,VALID,1008.57,VALID,0,VALID,99.6228,VALID,0,VALID,24.532,VALID,6,VALID,0,
2010-04-14, 01:47:04,VALID,1008.58,VALID,0,VALID,99.6228,VALID,0,VALID,24.532,VALID,6,VALID,0,
2010-04-14, 01:48:04,VALID,1008.61,VALID,0,VALID,99.6305,VALID,0,VALID,24.532,VALID,6,VALID,0,
2010-04-14, 01:49:04,VALID,1008.6,VALID,0,VALID,99.6305,VALID,0,VALID,24.5125,VALID,6,VALID,0,
2010-04-14, 01:50:04,VALID,1008.58,VALID,0,VALID,99.6457,VALID,0,VALID,24.532,VALID,6,VALID,0,
2010-04-14, 01:51:04,VALID,1008.58,VALID,0,VALID,99.6381,VALID,0,VALID,24.532,VALID,6,VALID,0,
2010-04-14, 01:52:04,VALID,1008.52,VALID,0,VALID,99.6305,VALID,0,VALID,24.532,VALID,6,VALID,0,
2010-04-14, 01:53:04,VALID,1008.53,VALID,0,VALID,99.6533,VALID,0,VALID,24.532,VALID,6,VALID,0,
2010-04-14, 01:54:04,VALID,1008.49,VALID,0,VALID,99.661,VALID,0.105969,VALID,24.5301,VALID,6,VALID,0,
2010-04-14, 01:55:04,VALID,1008.48,VALID,0,VALID,99.6457,VALID,0,VALID,24.5515,VALID,6,VALID,0,
2010-04-14, 01:56:04,VALID,1008.46,VALID,0,VALID,99.6533,VALID,0,VALID,24.5515,VALID,6,VALID,0,
2010-04-14, 01:57:04,VALID,1008.47,VALID,0,VALID,99.6533,VALID,0,VALID,24.5515,VALID,6,VALID,0,
2010-04-14, 01:58:04,VALID,1008.44,VALID,0,VALID,99.6457,VALID,0,VALID,24.5515,VALID,6,VALID,0,
2010-04-14, 01:59:04,VALID,1008.46,VALID,0,VALID,99.6,VALID,0,VALID,24.5515,VALID,6,VALID,0,
2010-04-14, 02:00:04,VALID,1008.45,VALID,0,VALID,99.4703,VALID,0,VALID,24.5515,VALID,6,VALID,0,
2010-04-14, 02:01:04,VALID,1008.44,VALID,0,VALID,99.4398,VALID,0.105969,VALID,24.5515,VALID,6,VALID,0,
2010-04-14, 02:02:04,VALID,1008.41,VALID,0,VALID,99.4322,VALID,0,VALID,24.571,VALID,6,VALID,0,
2010-04-14, 02:03:04,VALID,1008.42,VALID,0,VALID,99.4169,VALID,0,VALID,24.5691,VALID,6,VALID,0,
2010-04-14, 02:04:04,VALID,1008.39,VALID,0,VALID,99.4093,VALID,0,VALID,24.571,VALID,6,VALID,0,
2010-04-14, 02:05:04,VALID,1008.37,VALID,0,VALID,99.3559,VALID,0,VALID,24.5905,VALID,6,VALID,0,
2010-04-14, 02:06:04,VALID,1008.4,VALID,0,VALID,99.3483,VALID,0,VALID,24.5691,VALID,342,VALID,0.298438,
2010-04-14, 02:07:04,VALID,1008.4,VALID,0,VALID,99.3254,VALID,0,VALID,24.5905,VALID,342,VALID,0,
2010-04-14, 02:08:04,VALID,1008.41,VALID,0,VALID,99.2721,VALID,0,VALID,24.5886,VALID,342,VALID,0,
2010-04-14, 02:09:04,VALID,1008.4,VALID,0,VALID,99.2263,VALID,0,VALID,24.6081,VALID,342,VALID,0,
2010-04-14, 02:10:04,VALID,1008.42,VALID,0,VALID,99.1958,VALID,0,VALID,24.6294,VALID,342,VALID,0,
2010-04-14, 02:11:04,VALID,1008.41,VALID,0,VALID,99.1653,VALID,0,VALID,24.6294,VALID,342,VALID,0.0804688,
2010-04-14, 02:12:04,VALID,1008.42,VALID,0,VALID,99.1119,VALID,0,VALID,24.6489,VALID,342,VALID,0.112891,
2010-04-14, 02:13:04,VALID,1008.41,VALID,0,VALID,99.089,VALID,0,VALID,24.6294,VALID,342,VALID,0,
2010-04-14, 02:14:04,VALID,1008.48,VALID,0,VALID,99.0509,VALID,0,VALID,24.6099,VALID,342,VALID,0,
2010-04-14, 02:15:04,VALID,1008.47,VALID,0,VALID,99.0204,VALID,0,VALID,24.6099,VALID,342,VALID,0,
2010-04-14, 02:16:04,VALID,1008.48,VALID,0,VALID,99.0433,VALID,0,VALID,24.6099,VALID,342,VALID,0,
2010-04-14, 02:17:04,VALID,1008.48,VALID,0,VALID,99.0814,VALID,0,VALID,24.6099,VALID,342,VALID,0,
2010-04-14, 02:18:04,VALID,1008.5,VALID,0,VALID,99.0433,VALID,0,VALID,24.5905,VALID,342,VALID,0,
2010-04-14, 02:19:04,VALID,1008.5,VALID,0,VALID,99.0662,VALID,0,VALID,24.5905,VALID,342,VALID,0,
2010-04-14, 02:20:04,VALID,1008.51,VALID,0,VALID,99.0585,VALID,0.105969,VALID,24.5691,VALID,342,VALID,0,
2010-04-14, 02:21:04,VALID,1008.52,VALID,0,VALID,99.0814,VALID,0,VALID,24.571,VALID,342,VALID,0,
2010-04-14, 02:22:04,VALID,1008.54,VALID,0,VALID,99.1119,VALID,0,VALID,24.6099,VALID,342,VALID,0,
2010-04-14, 02:23:04,VALID,1008.54,VALID,0,VALID,99.1577,VALID,0,VALID,24.6294,VALID,342,VALID,0,
2010-04-14, 02:24:04,VALID,1008.53,VALID,0,VALID,99.1348,VALID,0,VALID,24.6294,VALID,341,VALID,0.149609,
2010-04-14, 02:25:04,VALID,1008.57,VALID,0,VALID,99.0967,VALID,0,VALID,24.6294,VALID,341,VALID,0,
2010-04-14, 02:26:04,VALID,1008.52,VALID,0,VALID,99.0509,VALID,0.105969,VALID,24.6489,VALID,341,VALID,0,
2010-04-14, 02:27:04,VALID,1008.57,VALID,0,VALID,99.028,VALID,0,VALID,24.6294,VALID,341,VALID,0,
2010-04-14, 02:28:04,VALID,1008.55,VALID,0,VALID,98.967,VALID,0,VALID,24.6489,VALID,341,VALID,0,
2010-04-14, 02:29:04,VALID,1008.54,VALID,0,VALID,98.9975,VALID,0,VALID,24.6489,VALID,341,VALID,0,
2010-04-14, 02:30:04,VALID,1008.54,VALID,0,VALID,99.0204,VALID,0,VALID,24.6489,VALID,341,VALID,0,
2010-04-14, 02:31:04,VALID,1008.53,VALID,0,VALID,99.0662,VALID,0,VALID,24.6276,VALID,341,VALID,0,
2010-04-14, 02:32:04,VALID,1008.52,VALID,0,VALID,99.0509,VALID,0,VALID,24.6489,VALID,341,VALID,0,
2010-04-14, 02:33:04,VALID,1008.47,VALID,0,VALID,99.0357,VALID,0,VALID,24.6489,VALID,341,VALID,0,
2010-04-14, 02:34:04,VALID,1008.43,VALID,0,VALID,98.9899,VALID,0,VALID,24.6684,VALID,341,VALID,0,
2010-04-14, 02:35:04,VALID,1008.4,VALID,0,VALID,98.9594,VALID,0,VALID,24.6489,VALID,341,VALID,0,
2010-04-14, 02:36:04,VALID,1008.35,VALID,0,VALID,98.8984,VALID,0,VALID,24.6684,VALID,341,VALID,0,
2010-04-14, 02:37:04,VALID,1008.34,VALID,0,VALID,98.8526,VALID,0,VALID,24.6879,VALID,341,VALID,0,
2010-04-14, 02:38:04,VALID,1008.34,VALID,0,VALID,98.8679,VALID,0,VALID,24.6666,VALID,341,VALID,0,
2010-04-14, 02:39:04,VALID,1008.31,VALID,0,VALID,98.845,VALID,0,VALID,24.6879,VALID,341,VALID,0,
2010-04-14, 02:40:04,VALID,1008.33,VALID,0,VALID,98.845,VALID,0,VALID,24.6666,VALID,341,VALID,0,
2010-04-14, 02:41:04,VALID,1008.32,VALID,0,VALID,98.8298,VALID,0,VALID,24.6879,VALID,341,VALID,0,
2010-04-14, 02:42:04,VALID,1008.28,VALID,0,VALID,98.8221,VALID,0,VALID,24.6471,VALID,341,VALID,0,
2010-04-14, 02:43:04,VALID,1008.25,VALID,0,VALID,98.8298,VALID,0,VALID,24.6684,VALID,341,VALID,0,
2010-04-14, 02:44:04,VALID,1008.24,VALID,0,VALID,98.845,VALID,0,VALID,24.6684,VALID,341,VALID,0,
2010-04-14, 02:45:04,VALID,1008.2,VALID,0,VALID,98.8908,VALID,0,VALID,24.6489,VALID,341,VALID,0,
2010-04-14, 02:46:04,VALID,1008.17,VALID,0,VALID,98.8603,VALID,0,VALID,24.6294,VALID,341,VALID,0,
2010-04-14, 02:47:04,VALID,1008.18,VALID,0,VALID,98.8908,VALID,0,VALID,24.6099,VALID,341,VALID,0,
2010-04-14, 02:48:04,VALID,1008.15,VALID,0,VALID,98.9213,VALID,0,VALID,24.6081,VALID,341,VALID,0,
2010-04-14, 02:49:04,VALID,1008.14,VALID,0,VALID,98.967,VALID,0,VALID,24.6099,VALID,341,VALID,0,
2010-04-14, 02:50:04,VALID,1008.16,VALID,0,VALID,99.0204,VALID,0.105969,VALID,24.6081,VALID,341,VALID,0,
2010-04-14, 02:51:04,VALID,1008.13,VALID,0,VALID,99.0738,VALID,0,VALID,24.6294,VALID,341,VALID,0,
2010-04-14, 02:52:04,VALID,1008.12,VALID,0,VALID,99.1195,VALID,0,VALID,24.6099,VALID,341,VALID,0,
2010-04-14, 02:53:04,VALID,1008.12,VALID,0,VALID,99.1348,VALID,0,VALID,24.6313,VALID,341,VALID,0,
2010-04-14, 02:54:04,VALID,1008.1,VALID,0,VALID,99.1043,VALID,0,VALID,24.5905,VALID,341,VALID,0,
2010-04-14, 02:55:04,VALID,1008.07,VALID,0,VALID,99.0967,VALID,0,VALID,24.5905,VALID,341,VALID,0,
2010-04-14, 02:56:04,VALID,1008.1,VALID,0,VALID,99.089,VALID,0,VALID,24.5905,VALID,341,VALID,0,
2010-04-14, 02:57:04,VALID,1008.09,VALID,0,VALID,99.089,VALID,0,VALID,24.5905,VALID,341,VALID,0,
2010-04-14, 02:58:04,VALID,1008.1,VALID,0,VALID,99.1043,VALID,0,VALID,24.5905,VALID,341,VALID,0,
2010-04-14, 02:59:04,VALID,1008.08,VALID,0,VALID,99.1043,VALID,0,VALID,24.5905,VALID,341,VALID,0,
2010-04-14, 03:00:04,VALID,1008.09,VALID,0,VALID,99.1043,VALID,0,VALID,24.5905,VALID,341,VALID,0,
2010-04-14, 03:01:04,VALID,1008.1,VALID,0,VALID,99.0814,VALID,0,VALID,24.571,VALID,341,VALID,0,
2010-04-14, 03:02:04,VALID,1008.08,VALID,0,VALID,99.0204,VALID,0,VALID,24.5905,VALID,341,VALID,0,
2010-04-14, 03:03:04,VALID,1008.05,VALID,0,VALID,99.0357,VALID,0,VALID,24.5905,VALID,341,VALID,0,
2010-04-14, 03:04:04,VALID,1008,VALID,0,VALID,98.9518,VALID,0,VALID,24.5905,VALID,341,VALID,0,
2010-04-14, 03:05:04,VALID,1008,VALID,0,VALID,98.8755,VALID,0,VALID,24.5905,VALID,341,VALID,0,
2010-04-14, 03:06:04,VALID,1007.99,VALID,0,VALID,99.0585,VALID,0,VALID,24.5905,VALID,341,VALID,0,
2010-04-14, 03:07:04,VALID,1007.94,VALID,0,VALID,99.0509,VALID,0.105969,VALID,24.571,VALID,341,VALID,0,
2010-04-14, 03:08:04,VALID,1007.91,VALID,0,VALID,99.0585,VALID,0,VALID,24.571,VALID,341,VALID,0,
2010-04-14, 03:09:04,VALID,1007.92,VALID,0,VALID,99.0738,VALID,0,VALID,24.5496,VALID,341,VALID,0,
2010-04-14, 03:10:04,VALID,1007.92,VALID,0,VALID,99.0662,VALID,0,VALID,24.5496,VALID,341,VALID,0,
2010-04-14, 03:11:04,VALID,1007.92,VALID,0,VALID,99.089,VALID,0,VALID,24.571,VALID,341,VALID,0,
2010-04-14, 03:12:04,VALID,1007.92,VALID,0,VALID,99.0738,VALID,0,VALID,24.571,VALID,341,VALID,0,
2010-04-14, 03:13:04,VALID,1007.92,VALID,0,VALID,99.0967,VALID,0,VALID,24.5515,VALID,341,VALID,0,
2010-04-14, 03:14:04,VALID,1007.94,VALID,0,VALID,99.089,VALID,0,VALID,24.5301,VALID,341,VALID,0,
2010-04-14, 03:15:04,VALID,1007.91,VALID,0,VALID,99.089,VALID,0,VALID,24.532,VALID,341,VALID,0,
2010-04-14, 03:16:04,VALID,1007.86,VALID,0,VALID,99.0662,VALID,0,VALID,24.4911,VALID,341,VALID,0,
2010-04-14, 03:17:04,VALID,1007.89,VALID,0,VALID,99.089,VALID,0,VALID,24.5125,VALID,341,VALID,0,
2010-04-14, 03:18:04,VALID,1007.86,VALID,0,VALID,99.089,VALID,0,VALID,24.5125,VALID,341,VALID,0,
2010-04-14, 03:19:04,VALID,1007.87,VALID,0,VALID,99.1195,VALID,0.105969,VALID,24.4717,VALID,341,VALID,0,
2010-04-14, 03:20:04,VALID,1007.88,VALID,0,VALID,99.1043,VALID,0,VALID,24.4735,VALID,341,VALID,0,
2010-04-14, 03:21:04,VALID,1007.9,VALID,0,VALID,99.1043,VALID,0,VALID,24.4735,VALID,341,VALID,0,
2010-04-14, 03:22:04,VALID,1007.9,VALID,0,VALID,99.1043,VALID,0,VALID,24.454,VALID,341,VALID,0,
2010-04-14, 03:23:04,VALID,1007.89,VALID,0,VALID,99.1348,VALID,0,VALID,24.4327,VALID,341,VALID,0,
2010-04-14, 03:24:04,VALID,1007.91,VALID,0,VALID,99.1653,VALID,0,VALID,24.4327,VALID,341,VALID,0,
2010-04-14, 03:25:04,VALID,1007.93,VALID,0,VALID,99.1805,VALID,0.105969,VALID,24.4345,VALID,341,VALID,0,
2010-04-14, 03:26:04,VALID,1007.9,VALID,0,VALID,99.2263,VALID,0,VALID,24.4132,VALID,341,VALID,0,
2010-04-14, 03:27:04,VALID,1007.91,VALID,0,VALID,99.2416,VALID,0,VALID,24.3937,VALID,341,VALID,0,
2010-04-14, 03:28:04,VALID,1007.89,VALID,0,VALID,99.2416,VALID,0.105969,VALID,24.3956,VALID,341,VALID,0,
2010-04-14, 03:29:04,VALID,1007.92,VALID,0,VALID,99.2873,VALID,0,VALID,24.3761,VALID,341,VALID,0,
2010-04-14, 03:30:04,VALID,1007.89,VALID,0,VALID,99.3026,VALID,0,VALID,24.3761,VALID,341,VALID,0,
2010-04-14, 03:31:04,VALID,1007.86,VALID,0,VALID,99.3254,VALID,0,VALID,24.3566,VALID,341,VALID,0,
2010-04-14, 03:32:04,VALID,1007.88,VALID,0,VALID,99.3559,VALID,0,VALID,24.3352,VALID,341,VALID,0,
2010-04-14, 03:33:04,VALID,1007.88,VALID,0,VALID,99.3636,VALID,0.105969,VALID,24.3352,VALID,341,VALID,0,
2010-04-14, 03:34:04,VALID,1007.88,VALID,0,VALID,99.3636,VALID,0,VALID,24.3371,VALID,341,VALID,0,
2010-04-14, 03:35:04,VALID,1007.83,VALID,0,VALID,99.3559,VALID,0,VALID,24.3371,VALID,341,VALID,0,
2010-04-14, 03:36:04,VALID,1007.84,VALID,0,VALID,99.3559,VALID,0,VALID,24.2963,VALID,341,VALID,0,
2010-04-14, 03:37:04,VALID,1007.82,VALID,0,VALID,99.3483,VALID,0,VALID,24.3371,VALID,341,VALID,0,
2010-04-14, 03:38:04,VALID,1007.84,VALID,0,VALID,99.3331,VALID,0,VALID,24.3371,VALID,341,VALID,0,
2010-04-14, 03:39:04,VALID,1007.8,VALID,0,VALID,99.3407,VALID,0,VALID,24.3371,VALID,341,VALID,0,
2010-04-14, 03:40:04,VALID,1007.78,VALID,0,VALID,99.2111,VALID,0,VALID,24.3371,VALID,341,VALID,0,
2010-04-14, 03:41:04,VALID,1007.79,VALID,0,VALID,99.1424,VALID,0,VALID,24.3176,VALID,341,VALID,0,
2010-04-14, 03:42:04,VALID,1007.81,VALID,0,VALID,99.0814,VALID,0,VALID,24.3176,VALID,341,VALID,0.310547,
2010-04-14, 03:43:04,VALID,1007.81,VALID,0,VALID,99.0357,VALID,0,VALID,24.2981,VALID,341,VALID,0.246484,
2010-04-14, 03:44:05,VALID,1007.82,VALID,0,VALID,98.845,VALID,0,VALID,24.2981,VALID,341,VALID,0.394531,
2010-04-14, 03:45:05,VALID,1007.82,VALID,0,VALID,98.662,VALID,0,VALID,24.2981,VALID,341,VALID,0.390234,
2010-04-14, 03:46:05,VALID,1007.8,VALID,0,VALID,97.7774,VALID,0,VALID,24.2981,VALID,341,VALID,0.431641,
2010-04-14, 03:47:05,VALID,1007.82,VALID,0,VALID,97.9681,VALID,0,VALID,24.2981,VALID,341,VALID,0.348437,
2010-04-14, 03:48:05,VALID,1007.81,VALID,0,VALID,97.9071,VALID,0,VALID,24.2573,VALID,341,VALID,0.406641,
2010-04-14, 03:49:05,VALID,1007.78,VALID,0,VALID,97.6859,VALID,0,VALID,24.2591,VALID,341,VALID,0.400781,
2010-04-14, 03:50:05,VALID,1007.81,VALID,0,VALID,97.3885,VALID,0,VALID,24.2591,VALID,341,VALID,0.185547,
2010-04-14, 03:51:05,VALID,1007.79,VALID,0,VALID,97.3656,VALID,0,VALID,24.2183,VALID,14,VALID,0.222656,
2010-04-14, 03:52:05,VALID,1007.8,VALID,0,VALID,97.358,VALID,0,VALID,24.1988,VALID,14,VALID,0.337891,
2010-04-14, 03:53:05,VALID,1007.78,VALID,0,VALID,97.3351,VALID,0,VALID,24.1793,VALID,14,VALID,0,
2010-04-14, 03:54:05,VALID,1007.75,VALID,0,VALID,97.3275,VALID,0,VALID,24.1812,VALID,14,VALID,0,
2010-04-14, 03:55:05,VALID,1007.78,VALID,0,VALID,97.3122,VALID,0.105969,VALID,24.1812,VALID,14,VALID,0,
2010-04-14, 03:56:05,VALID,1007.76,VALID,0,VALID,97.3046,VALID,0,VALID,24.1812,VALID,14,VALID,0.06875,
2010-04-14, 03:57:05,VALID,1007.81,VALID,0,VALID,97.3046,VALID,0,VALID,24.1812,VALID,14,VALID,0,
2010-04-14, 03:58:05,VALID,1007.8,VALID,0,VALID,97.2665,VALID,0.105969,VALID,24.1617,VALID,14,VALID,0,